Fort Myers, FL

9:08 AM EDT on June 28, 2017 (GMT -0400)
Page

Weather History for KFMY - December, 2011

Change the Weather History Date:

Sunday, December 18, 2011

  Actual Average Record
Temperature  
Mean Temperature 67 °F 66 °F  
Max Temperature 76 °F 76 °F 85 °F (1931)
Min Temperature 57 °F 56 °F 35 °F (1973)
Degree Days  
Heating Degree Days 0 3  
Month to date heating degree days 10 32  
Since 1 July heating degree days 14 50  
Cooling Degree Days 2 4  
Month to date cooling degree days 110 79  
Year to date cooling degree days 4204 3942  
Growing Degree Days 18 (Base 50)    
Moisture  
Dew Point 50 °F    
Average Humidity 61    
Maximum Humidity 90    
Minimum Humidity 23    
Precipitation  
Precipitation 0.00 in 0.06 in 1.15 in (1954)
Month to date precipitation 0.26 0.91  
Year to date precipitation 65.67 55.13  
Sea Level Pressure  
Sea Level Pressure 30.20 in    
Wind  
Wind Speed 9 mph (NE)    
Max Wind Speed 18 mph    
Max Gust Speed 23 mph    
Visibility 10 miles    
Events      
T = Trace of Precipitation, MM = Missing Value Source: NWS Daily Summary

Daily Weather History Graph

Daily Weather History Graph

Search for Another Location

Airport or City:

Trip Planner

Search our weather history database for the weather conditions in past years. The results will help you decide how hot, cold, wet, or windy it might be!

Date:

Astronomy

Dec. 18, 2011 Rise Set
Actual Time 7:09 AM EST 5:38 PM EST
Civil Twilight 6:44 AM EST 6:03 PM EST
Nautical Twilight 6:15 AM EST 6:32 PM EST
Astronomical Twilight 5:47 AM EST 7:00 PM EST
Moon 12:37 AM EST (12/18) 12:38 PM EST (12/18)
Length of Visible Light 11h 19m
Length of Day
10h 28m
Last Quarter, 42% of the Moon is Illuminated
Dec 18
Last Quarter
Dec 24
New
Jan 1
First Quarter
Jan 9
Full
Jan 16
Last Quarter

Hourly Weather History & Observations

Time (EST) Temp. Dew Point Humidity Pressure Visibility Wind Dir Wind Speed Gust Speed Precip Events Conditions
12:53 AM 64.9 °F 60.1 °F 84% 30.19 in 10.0 mi North 6.9 mph - N/A   Clear
1:53 AM 64.0 °F 60.1 °F 87% 30.19 in 10.0 mi North 4.6 mph - N/A   Clear
2:53 AM 64.0 °F 60.1 °F 87% 30.18 in 10.0 mi North 6.9 mph - N/A   Clear
4:53 AM 62.1 °F 59.0 °F 90% 30.17 in 10.0 mi North 9.2 mph - N/A   Clear
5:53 AM 62.1 °F 57.9 °F 86% 30.17 in 10.0 mi NNE 8.1 mph - N/A   Clear
6:53 AM 61.0 °F 57.0 °F 87% 30.19 in 10.0 mi NNE 11.5 mph - N/A   Clear
7:53 AM 61.0 °F 55.9 °F 83% 30.22 in 10.0 mi NNE 10.4 mph - N/A   Clear
9:53 AM 64.9 °F 48.0 °F 54% 30.26 in 10.0 mi NNE 17.3 mph 23.0 mph N/A   Clear
10:53 AM 68.0 °F 48.0 °F 49% 30.25 in 10.0 mi NNE 15.0 mph - N/A   Clear
11:53 AM 71.1 °F 48.0 °F 44% 30.24 in 10.0 mi NE 11.5 mph - N/A   Clear
1:53 PM 73.9 °F 42.1 °F 32% 30.17 in 10.0 mi ENE 6.9 mph - N/A   Clear
2:53 PM 75.9 °F 41.0 °F 29% 30.16 in 10.0 mi NE 10.4 mph - N/A   Clear
3:53 PM 75.0 °F 36.0 °F 24% 30.16 in 10.0 mi ENE 9.2 mph - N/A   Clear
4:53 PM 73.0 °F 39.9 °F 30% 30.17 in 10.0 mi NE 9.2 mph - N/A   Clear
5:53 PM 66.0 °F 44.1 °F 45% 30.19 in 10.0 mi NNE 5.8 mph - N/A   Clear
6:53 PM 64.0 °F 46.0 °F 52% 30.21 in 10.0 mi NE 6.9 mph - N/A   Clear
7:53 PM 63.0 °F 48.0 °F 58% 30.23 in 10.0 mi ENE 8.1 mph - N/A   Clear
8:53 PM 62.1 °F 50.0 °F 65% 30.25 in 10.0 mi ENE 6.9 mph - N/A   Clear
9:53 PM 61.0 °F 50.0 °F 67% 30.25 in 10.0 mi ENE 8.1 mph - N/A   Clear
10:53 PM 59.0 °F 50.0 °F 72% 30.25 in 10.0 mi NE 6.9 mph - N/A   Clear